Location: Olda
(45.8833°N, 9.5500°E)
Time: 12:37:14
(UTC+00:00)

Cosmos 192 - Pass Details

Date: 03 March 2021
Orbit: 700 x 714 km, 74.0° (Epoch: 11 April)

Event Time Altitude Azimuth Distance (km) Brightness Sun altitude
Rises 19:14:29 0° 198° (SSW) 3,072 7.7 -22.1°
Reaches altitude 10° 19:16:48 10° 198° (SSW) 2,160 6.9 -22.5°
Maximum altitude 19:21:40 87° 112° (ESE) 710 4.2 -23.3°
Drops below altitude 10° 19:26:36 10° 22° (NNE) 2,182 6.8 -24.1°
Sets 19:28:56 0° 22° (NNE) 3,107 7.6 -24.5°
